Location: Caltech
(34.1382°N, 118.1253°W)
Time: 09:57:06
(UTC-07:00)

AO-27 - Visible Passes

Search period start: 23 July 2016 00:00
Search period end: 02 August 2016 00:00
Orbit: 786 x 797 km, 98.8° (Epoch: 21 July)

Date Brightness Start Highest point End Pass type
(mag) Time Alt. Az. Time Alt. Az. Time Alt. Az.
23 Jul 8.9 03:12:52 10° NNE 03:17:37 35° E 03:19:09 29° SE visible
23 Jul 9.0 04:52:48 10° NNW 04:56:52 24° WNW 04:59:54 14° WSW visible
24 Jul 9.7 02:44:57 10° NE 02:48:26 18° E 02:49:44 16° ESE visible
24 Jul 8.1 04:23:08 10° N 04:28:05 44° WNW 04:30:29 27° SW visible
25 Jul 7.6 03:53:57 10° NNE 03:59:11 87° WNW 04:01:04 41° SSW visible
26 Jul 8.4 03:25:08 10° NNE 03:30:09 47° E 03:31:39 37° SE visible
26 Jul 9.3 05:05:47 10° NNW 05:09:14 18° WNW 05:12:24 11° WSW visible
27 Jul 9.4 02:56:51 10° NE 03:01:01 24° E 03:02:13 22° ESE visible
27 Jul 8.5 04:35:51 10° N 04:40:29 34° WNW 04:42:58 22° WSW visible
28 Jul 10.1 02:30:01 10° ENE 02:31:45 12° E 02:32:48 11° ESE visible
28 Jul 7.6 04:06:28 10° N 04:11:38 66° WNW 04:13:33 38° SW visible
29 Jul 7.9 03:37:30 10° NNE 03:42:40 63° ESE 03:44:07 44° SSE visible
29 Jul 9.6 05:19:03 10° NW 05:21:33 14° WNW 05:24:03 10° W visible
30 Jul 9.0 03:08:58 10° NE 03:13:34 31° E 03:14:41 29° ESE visible
30 Jul 8.8 04:48:38 10° NNW 04:52:53 26° WNW 04:55:27 18° WSW visible
31 Jul 9.8 02:41:14 10° NE 02:44:22 16° E 02:45:16 15° ESE visible
31 Jul 7.9 04:19:04 10° N 04:24:05 49° WNW 04:26:01 33° SW visible
01 Aug 7.6 03:49:56 10° NNE 03:55:09 84° ESE 03:56:35 49° S visible
01 Aug 9.8 05:33:33 10° WNW 05:33:52 10° WNW 05:34:10 10° WNW visible
